Willmar, MN

12:39 AM CDT on May 30, 2017 (GMT -0500)
Willmar

Weather History for KBDH - June, 2013

Change the Weather History Date:

Tuesday, June 18, 2013

  Actual Average (KBBB) Record (KBBB)
Temperature  
Mean Temperature 68 °F -  
Max Temperature 78 °F 78 °F 99 °F (1988)
Min Temperature 57 °F 57 °F 44 °F (2008)
Cooling Degree Days 2    
Growing Degree Days 18 (Base 50)    
Moisture  
Dew Point 52 °F    
Average Humidity 57    
Maximum Humidity 82    
Minimum Humidity 32    
Precipitation  
Precipitation 0.02 in - - ()
Sea Level Pressure  
Sea Level Pressure 30.07 in    
Wind  
Wind Speed 8 mph (East)    
Max Wind Speed 16 mph    
Max Gust Speed 18 mph    
Visibility 10 miles    
Events Rain , Thunderstorm    
Averages and records for this station are not official NWS values.
T = Trace of Precipitation, MM = Missing Value Source: NWS Daily Summary

Daily Weather History Graph

Daily Weather History Graph

Search for Another Location

Airport or City:

Trip Planner

Search our weather history database for the weather conditions in past years. The results will help you decide how hot, cold, wet, or windy it might be!

Date:

Astronomy

Jun. 18, 2013 Rise Set
Actual Time 5:32 AM CDT 9:10 PM CDT
Civil Twilight 4:55 AM CDT 9:48 PM CDT
Nautical Twilight 4:05 AM CDT 10:38 PM CDT
Astronomical Twilight 2:58 AM CDT 11:45 PM CDT
Moon 3:45 PM CDT (6/18) 1:54 AM CDT (6/18)
Length of Visible Light 16h 53m
Length of Day
15h 37m
Waxing Gibbous, 71% of the Moon is Illuminated
Jun 18
Waxing Gibbous
Jun 23
Full
Jun 29
Last Quarter
Jul 8
New
Jul 15
First Quarter

Hourly Weather History & Observations

Time (CDT) Temp. Dew Point Humidity Pressure Visibility Wind Dir Wind Speed Gust Speed Precip Events Conditions
12:15 AM 66.2 °F 51.8 °F 60% 30.04 in 10.0 mi ENE 16.1 mph - N/A   Scattered Clouds
12:35 AM 66.2 °F 51.8 °F 60% 30.04 in 10.0 mi NE 13.8 mph 17.3 mph N/A Thunderstorm Scattered Clouds
12:55 AM 64.4 °F 51.8 °F 64% 30.04 in 10.0 mi ENE 13.8 mph - N/A   Clear
1:15 AM 64.4 °F 51.8 °F 64% 30.05 in 10.0 mi ENE 11.5 mph - N/A Thunderstorm Scattered Clouds
1:35 AM 64.4 °F 53.6 °F 68% 30.04 in 10.0 mi East 10.4 mph 18.4 mph N/A Rain , Thunderstorm Light Thunderstorms and Rain
1:55 AM 62.6 °F 53.6 °F 72% 30.04 in 10.0 mi East 11.5 mph - 0.02 in Thunderstorm Thunderstorm
2:15 AM 62.6 °F 53.6 °F 72% 30.04 in 10.0 mi North 9.2 mph - N/A Thunderstorm Mostly Cloudy
2:35 AM 62.6 °F 53.6 °F 72% 30.07 in 10.0 mi Calm Calm - N/A Thunderstorm Thunderstorm
2:55 AM 62.6 °F 53.6 °F 72% 30.09 in 10.0 mi Calm Calm - N/A Rain , Thunderstorm Light Thunderstorms and Rain
3:15 AM 62.6 °F 53.6 °F 72% 30.08 in 10.0 mi East 4.6 mph - N/A Rain Light Rain
3:35 AM 60.8 °F 53.6 °F 77% 30.08 in 10.0 mi ENE 4.6 mph - N/A   Mostly Cloudy
3:55 AM 60.8 °F 53.6 °F 77% 30.07 in 10.0 mi East 9.2 mph - N/A   Scattered Clouds
4:15 AM 60.8 °F 55.4 °F 82% 30.06 in 10.0 mi ENE 9.2 mph - N/A   Clear
4:35 AM 60.8 °F 53.6 °F 77% 30.06 in 10.0 mi ENE 10.4 mph - N/A   Clear
4:55 AM 59.0 °F 53.6 °F 82% 30.07 in 10.0 mi NE 10.4 mph - N/A   Clear
5:15 AM 57.2 °F 51.8 °F 82% 30.07 in 10.0 mi NE 8.1 mph - N/A   Clear
5:35 AM 57.2 °F 51.8 °F 82% 30.08 in 10.0 mi NE 9.2 mph - N/A   Clear
5:55 AM 57.2 °F 51.8 °F 82% 30.08 in 10.0 mi NE 6.9 mph - N/A   Clear
6:15 AM 57.2 °F 50.0 °F 77% 30.09 in 10.0 mi NE 10.4 mph - N/A   Clear
6:35 AM 57.2 °F 50.0 °F 77% 30.11 in 10.0 mi NE 4.6 mph - N/A   Clear
6:55 AM 57.2 °F 48.2 °F 72% 30.11 in 10.0 mi ENE 8.1 mph - N/A   Clear
7:15 AM 57.2 °F 48.2 °F 72% 30.11 in 10.0 mi ENE 4.6 mph - N/A   Clear
7:36 AM 59.0 °F 48.2 °F 67% 30.10 in 10.0 mi East 5.8 mph - N/A   Clear
7:55 AM 59.0 °F 46.4 °F 63% 30.10 in 10.0 mi East 5.8 mph - N/A   Clear
8:15 AM 60.8 °F 46.4 °F 59% 30.10 in 10.0 mi ENE 6.9 mph - N/A   Clear
8:35 AM 60.8 °F 46.4 °F 59% 30.11 in 10.0 mi NE 5.8 mph - N/A   Clear
8:55 AM 60.8 °F 48.2 °F 63% 30.10 in 10.0 mi NE 5.8 mph - N/A   Clear
9:15 AM 62.6 °F 48.2 °F 59% 30.11 in 10.0 mi ENE 3.5 mph - N/A   Clear
9:35 AM 64.4 °F 48.2 °F 56% 30.12 in 10.0 mi NNE 4.6 mph - N/A   Clear
9:55 AM 64.4 °F 50.0 °F 59% 30.12 in 10.0 mi NE 4.6 mph - N/A   Clear
10:15 AM 66.2 °F 51.8 °F 60% 30.11 in 10.0 mi NE 4.6 mph - N/A   Clear
10:35 AM 66.2 °F 51.8 °F 60% 30.12 in 10.0 mi ENE 3.5 mph - N/A   Clear
10:56 AM 68.0 °F 51.8 °F 56% 30.11 in 10.0 mi Calm Calm - N/A   Clear
11:15 AM 69.8 °F 53.6 °F 56% 30.11 in 10.0 mi East 3.5 mph - N/A   Clear
11:35 AM 69.8 °F 51.8 °F 53% 30.11 in 10.0 mi Calm Calm - N/A   Clear
11:55 AM 71.6 °F 53.6 °F 53% 30.11 in 10.0 mi NE 4.6 mph - N/A   Clear
12:15 PM 71.6 °F 51.8 °F 50% 30.11 in 10.0 mi East 3.5 mph - N/A   Clear
12:35 PM 71.6 °F 53.6 °F 53% 30.10 in 10.0 mi ENE 5.8 mph - N/A   Clear
12:55 PM 73.4 °F 53.6 °F 50% 30.10 in 10.0 mi ENE 4.6 mph - N/A   Clear
1:15 PM 73.4 °F 53.6 °F 50% 30.09 in 10.0 mi ENE 6.9 mph - N/A   Clear
1:35 PM 75.2 °F 53.6 °F 47% 30.08 in 10.0 mi Calm Calm - N/A   Clear
1:55 PM 75.2 °F 53.6 °F 47% 30.08 in 10.0 mi ENE 8.1 mph - N/A   Clear
2:16 PM 75.2 °F 51.8 °F 44% 30.07 in 10.0 mi ENE 5.8 mph - N/A   Clear
2:35 PM 75.2 °F 51.8 °F 44% 30.07 in 10.0 mi East 8.1 mph - N/A   Clear
2:55 PM 77.0 °F 51.8 °F 41% 30.06 in 10.0 mi East 11.5 mph 17.3 mph N/A   Clear
3:15 PM 78.8 °F 51.8 °F 39% 30.06 in 10.0 mi East 9.2 mph - N/A   Clear
3:35 PM 78.8 °F 51.8 °F 39% 30.05 in 10.0 mi ESE 8.1 mph - N/A   Scattered Clouds
3:55 PM 78.8 °F 50.0 °F 36% 30.04 in 10.0 mi SE 8.1 mph - N/A   Scattered Clouds
4:15 PM 78.8 °F 48.2 °F 34% 30.04 in 10.0 mi SE 5.8 mph - N/A   Clear
4:35 PM 78.8 °F 46.4 °F 32% 30.04 in 10.0 mi ESE 8.1 mph - N/A   Scattered Clouds
4:55 PM 77.0 °F 48.2 °F 36% 30.04 in 10.0 mi Calm Calm - N/A   Scattered Clouds
5:15 PM 78.8 °F 50.0 °F 36% 30.04 in 10.0 mi ESE 9.2 mph - N/A   Scattered Clouds
5:35 PM 78.8 °F 51.8 °F 39% 30.04 in 10.0 mi East 8.1 mph - N/A   Scattered Clouds
5:55 PM 78.8 °F 50.0 °F 36% 30.04 in 10.0 mi East 4.6 mph - N/A   Scattered Clouds
6:15 PM 77.0 °F 50.0 °F 39% 30.03 in 10.0 mi ESE 5.8 mph - N/A   Clear
6:35 PM 78.8 °F 48.2 °F 34% 30.03 in 10.0 mi SE 8.1 mph - N/A   Clear
6:55 PM 77.0 °F 48.2 °F 36% 30.03 in 10.0 mi SSE 6.9 mph - N/A   Clear
7:15 PM 78.8 °F 51.8 °F 39% 30.03 in 10.0 mi SE 6.9 mph - N/A   Clear
7:36 PM 78.8 °F 51.8 °F 39% 30.03 in 10.0 mi SE 8.1 mph - N/A   Clear
7:55 PM 77.0 °F 51.8 °F 41% 30.03 in 10.0 mi SE 8.1 mph - N/A   Clear
8:15 PM 75.2 °F 51.8 °F 44% 30.02 in 10.0 mi SE 5.8 mph - N/A   Clear
8:35 PM 75.2 °F 53.6 °F 47% 30.02 in 10.0 mi SE 4.6 mph - N/A   Clear
8:55 PM 73.4 °F 53.6 °F 50% 30.02 in 10.0 mi SE 5.8 mph - N/A   Clear
9:15 PM 71.6 °F 55.4 °F 57% 30.02 in 10.0 mi SE 4.6 mph - N/A   Clear
9:35 PM 69.8 °F 57.2 °F 64% 30.03 in 10.0 mi ESE 4.6 mph - N/A   Clear
9:55 PM 69.8 °F 55.4 °F 60% 30.04 in 10.0 mi SE 4.6 mph - N/A   Clear
10:15 PM 69.8 °F 55.4 °F 60% 30.04 in 10.0 mi SE 5.8 mph - N/A   Clear
10:35 PM 66.2 °F 55.4 °F 68% 30.05 in 10.0 mi ESE 4.6 mph - N/A   Clear
10:55 PM 66.2 °F 55.4 °F 68% 30.05 in 10.0 mi East 5.8 mph - N/A   Clear
11:15 PM 66.2 °F 55.4 °F 68% 30.04 in 10.0 mi ESE 6.9 mph - N/A   Clear
11:35 PM 68.0 °F 55.4 °F 64% 30.03 in 10.0 mi ESE 6.9 mph - N/A   Clear
11:55 PM 66.2 °F 55.4 °F 68% 30.03 in 10.0 mi ESE 6.9 mph - N/A   Clear